DW9565 Weather Reports


time (UTC)temp
C
wind
direction
speed
KPH
gust
KPH
rain 1hr
cm
rain 24hr
cm
rain mn
cm
humidity
%
barometer
mb
20260906230032 13 279 9.7 12.9 0.00 1.22 0.79 92 1018.1
20260906224531 13 279 8.0 14.5 0.00 1.22 0.79 92 1018.3
20260906223031 13 281 6.4 12.9 0.00 1.22 0.79 92 1018.2
20260906221531 13 296 6.4 12.9 0.00 1.22 0.79 92 1018.1
20260906220029 13 306 6.4 14.5 0.00 1.22 0.79 91 1018.1
20260906214527 13 306 4.8 9.7 0.00 1.22 0.79 91 1018.1
20260906213027 12 306 6.4 9.7 0.00 1.22 0.79 93 1018.1
20260906211526 12 355 6.4 16.1 0.00 1.22 0.79 93 1018.1
20260906210025 12 343 6.4 14.5 0.00 1.22 0.79 92 1018.2
20260906204525 12 18 11.3 14.5 0.00 1.22 0.79 92 1018.2
20260906203023 12 344 6.4 12.9 0.00 1.22 0.79 91 1018.3
20260906201523 12 330 4.8 12.9 0.00 1.22 0.79 91 1018.4
20260906200021 12 341 6.4 14.5 0.00 1.22 0.79 91 1018.5
20260906194525 12 334 9.7 16.1 0.00 1.22 0.79 90 1018.6
20260906193021 12 300 8.0 16.1 0.00 1.22 0.79 90 1018.6
20260906191520 12 355 9.7 19.3 0.00 1.22 0.79 90 1018.5
20260906190018 12 335 9.7 17.7 0.00 1.22 0.79 89 1018.6
20260906184516 12 39 9.7 17.7 0.00 1.22 0.79 90 1018.5
20260906183017 12 346 4.8 12.9 0.00 1.22 0.79 91 1018.7
20260906181511 12 335 9.7 16.1 0.00 1.22 0.79 90 1019.0
20260906180008 11 340 8.0 12.9 0.00 1.22 0.79 92 1019.1
20260906174509 11 355 6.4 14.5 0.00 1.22 0.79 95 1019.5
20260906173003 11 336 4.8 11.3 0.00 1.22 0.79 96 1019.7
20260906171502 11 263 11.3 17.7 0.00 1.22 0.79 96 1020.3
20260906170005 11 273 12.9 17.7 0.00 1.22 0.79 96 1020.3
20260906164502 11 293 11.3 17.7 0.00 1.22 0.79 96 1020.2
20260906163106 11 279 8.0 19.3 0.00 1.22 0.79 96 1019.9
20260906161602 11 278 11.3 16.1 0.03 1.22 0.79 97 1020.1
20260906160059 10 302 14.5 17.7 0.28 1.22 0.79 97 1020.1
20260906154557 10 290 16.1 22.5 0.66 1.22 0.79 96 1020.3
20260906153057 10 284 14.5 25.7 0.71 1.22 0.79 96 1020.5
20260906151610 10 254 14.5 29.0 0.69 1.19 0.76 96 1020.8
20260906150100 10 272 19.3 27.4 0.43 0.94 0.51 96 1020.6
20260906144552 10 271 22.5 37.0 0.03 0.58 0.10 96 1021.1
20260906143106 11 291 17.7 27.4 0.00 0.56 0.08 96 1020.6
20260906141548 11 338 4.8 9.7 0.00 0.56 0.08 96 1020.3
20260906140050 10 348 4.8 8.0 0.00 0.56 0.08 96 1020.3
20260906134553 10 292 1.6 8.0 0.00 0.64 0.08 96 1020.1
20260906133044 11 292 4.8 8.0 0.00 0.64 0.08 96 1020.2
20260906131543 11 292 3.2 8.0 0.00 0.64 0.08 96 1019.9
20260906130040 11 283 4.8 16.1 0.00 0.64 0.08 96 1020.6
20260906124544 11 313 14.5 22.5 0.00 0.64 0.08 96 1020.5
20260906123109 11 292 14.5 25.7 0.00 0.64 0.08 96 1020.8
20260906121541 11 38 9.7 16.1 0.00 0.64 0.08 96 1020.8
20260906120037 11 41 4.8 8.0 0.00 0.64 0.08 96 1020.9
20260906114536 10 41 3.2 6.4 0.00 0.64 0.08 96 1020.8
20260906113040 10 41 4.8 9.7 0.00 0.64 0.08 96 1020.4
20260906111535 10 34 8.0 16.1 0.00 0.64 0.08 96 1020.4
20260906110034 10 33 8.0 16.1 0.00 0.64 0.08 96 1020.4
20260906104532 10 17 4.8 9.7 0.00 0.64 0.08 96 1020.6
20260906103031 11 30 9.7 16.1 0.00 0.64 0.08 96 1020.8
20260906101530 10 355 8.0 16.1 0.00 0.64 0.08 96 1020.8
20260906100029 10 325 3.2 8.0 0.00 0.64 0.08 96 1021.2
20260906094528 10 339 11.3 20.9 0.00 0.64 0.08 96 1021.0
20260906093026 10 325 3.2 14.5 0.00 0.64 0.08 96 1021.2
20260906091530 11 322 1.6 14.5 0.00 0.64 0.08 96 1021.9
20260906090025 10 335 11.3 20.9 0.00 0.64 0.08 96 1021.6
20260906084524 10 333 14.5 19.3 0.00 0.64 0.08 96 1021.6
20260906083032 10 321 12.9 22.5 0.00 0.64 0.08 95 1021.4
20260906081522 10 307 11.3 22.5 0.00 0.64 0.08 95 1021.7
20260906080028 10 346 17.7 25.7 0.00 0.64 0.08 95 1021.7
20260906074518 10 338 12.9 24.1 0.00 0.64 0.08 95 1021.6
20260906073018 10 302 14.5 24.1 0.03 0.64 0.08 95 1022.0
20260906071515 10 302 17.7 25.7 0.08 0.64 0.08 95 1022.1
20260906070012 10 311 16.1 22.5 0.08 0.64 0.08 94 1022.1
20260906064508 11 283 11.3 20.9 0.08 0.64 0.08 94 1023.0
20260906063007 11 244 4.8 11.3 0.05 0.61 0.05 94 1023.1
20260906061505 11 259 11.3 19.3 0.15 0.56 0.00 94 1023.1
20260906060002 11 277 11.3 16.1 0.18 0.56 0.56 93 1022.8
20260906054501 11 283 9.7 16.1 0.18 0.56 0.56 93 1022.5
20260906053001 11 289 12.9 17.7 0.18 0.56 0.56 93 1022.2
20260906051503 11 224 9.7 14.5 0.08 0.41 0.41 92 1023.9
20260906050059 11 251 4.8 11.3 0.20 0.38 0.38 91 1022.7
20260906044559 11 320 8.0 17.7 0.25 0.38 0.38 91 1021.9
20260906043102 11 338 11.3 19.3 0.25 0.38 0.38 90 1021.9
20260906041601 11 347 14.5 22.5 0.20 0.33 0.33 90 1021.8
20260906040056 11 175 6.4 14.5 0.05 0.18 0.18 87 1023.6
20260906034553 12 242 6.4 16.1 0.00 0.13 0.13 82 1022.9
20260906033106 12 291 3.2 6.4 0.00 0.13 0.13 81 1022.5
20260906031550 12 294 4.8 12.9 0.00 0.13 0.13 81 1022.2
20260906030050 11 338 4.8 8.0 0.00 0.13 0.13 82 1021.6
20260906024548 12 343 8.0 12.9 0.00 0.13 0.13 82 1021.3
20260906023051 12 331 6.4 9.7 0.00 0.13 0.13 81 1021.3
20260906021545 12 329 6.4 9.7 0.00 0.13 0.13 80 1021.3
20260906020056 13 331 3.2 14.5 0.00 0.13 0.13 78 1021.2
20260906014543 13 326 4.8 9.7 0.00 0.13 0.13 77 1021.2
20260906013050 13 336 6.4 14.5 0.00 0.13 0.13 75 1021.0
20260906011557 14 325 11.3 19.3 0.00 0.13 0.13 74 1021.0
20260906010044 15 337 11.3 20.9 0.00 0.13 0.13 72 1020.9
20260906004541 15 318 12.9 20.9 0.00 0.13 0.13 70 1021.1
20260906003041 15 324 11.3 20.9 0.00 0.13 0.13 72 1021.0
20260906001543 15 300 14.5 20.9 0.00 0.13 0.13 71 1021.0
20260906000051 15 310 11.3 20.9 0.00 0.13 0.13 69 1021.2
20260905234539 16 322 9.7 19.3 0.00 0.13 0.13 71 1021.2
20260905233041 15 360 12.9 27.4 0.00 0.13 0.13 71 1021.1
20260905231538 16 310 11.3 20.9 0.00 0.13 0.13 69 1021.0